Home   Weather   Laredo   Past weeks
Flag for USA

Past Weather in Laredo, Texas, USA — Yesterday and Last 2 Weeks

Now
76 °F

Sunny.


Feels Like: 78 °F
Forecast: 79 / 62 °F
Wind: 8 mph from Northeast

Location: Laredo International Airport

Current Time: Oct 17, 2019 at 3:42:16 pm

Latest Report: Oct 17, 2019 at 2:56 pm


Visibility: 10 mi

Pressure: 29.93 "Hg

Humidity: 45%

Dew Point: 53 °F

Location of LaredoLocation

Past Weather in Laredo — Graph

°F

Laredo Temperature Yesterday

Maximum temperature yesterday: 83 °F (at 12:56 am)
Minimum temperature yesterday: 64 °F (at 3:24 pm)
Average temperature yesterday: 71 °F

High & Low Weather Summary for the Past Weeks

 TemperatureHumidityPressure
High100 °F (Oct 10, 3:56 pm)94% (Oct 3, 7:56 am)30.27 "Hg (Oct 3, 7:56 am)
Low56 °F (Oct 11, 6:56 pm)23% (Oct 12, 5:56 pm)29.68 "Hg (Oct 10, 5:56 pm)
Average79 °F61%29.96 "Hg
* Reported Oct 2 1:56 pm — Oct 17 1:56 pm, Laredo. Weather by CustomWeather, © 2019

Note: Actual official high and low records may vary slightly from our data, if they occured in-between our weather recording intervals... More about our weather records

Advertising

Laredo Weather History for the Previous 24 Hours

Scroll right to see more
 ConditionsComfort  
Time TempWeatherWind HumidityBarometerVisibility
1:56 pm
Thu, Oct 17
73 °FSunny.No wind46%29.96 "Hg10 mi
12:56 pm72 °FSunny.7 mph46%30.00 "Hg10 mi
12:18 pm72 °FPassing clouds.7 mph47%30.02 "Hg10 mi
11:56 am70 °FOvercast.5 mph46%30.03 "Hg10 mi
10:56 am68 °FOvercast.8 mph51%30.04 "Hg10 mi
8:56 am64 °FOvercast.7 mph56%30.03 "Hg10 mi
7:56 am63 °FOvercast.3 mph60%30.03 "Hg10 mi
6:56 am63 °FOvercast.6 mph58%30.03 "Hg10 mi
5:56 am62 °FOvercast.3 mph62%30.02 "Hg10 mi
4:56 am63 °FOvercast.7 mph58%30.03 "Hg10 mi
4:24 am63 °FPassing clouds.8 mph59%30.04 "Hg10 mi
3:56 am63 °FPassing clouds.7 mph60%30.04 "Hg10 mi
2:56 am63 °FPassing clouds.7 mph60%30.06 "Hg10 mi
1:56 am65 °FMostly cloudy.7 mph87%30.10 "Hg10 mi
12:56 am65 °FOvercast.No wind87%30.08 "Hg10 mi
11:56 pm
Wed, Oct 16
66 °FOvercast.3 mph78%30.11 "Hg10 mi
10:56 pm65 °FClear.6 mph78%30.11 "Hg10 mi
9:56 pm65 °FClear.7 mph78%30.10 "Hg10 mi
8:56 pm66 °FPassing clouds.8 mph75%30.06 "Hg10 mi
7:56 pm67 °FOvercast.9 mph71%30.07 "Hg10 mi
6:56 pm67 °FCloudy.8 mph81%30.07 "Hg10 mi
5:56 pm67 °FMore clouds than sun.12 mph81%30.04 "Hg10 mi
4:56 pm66 °FOvercast.9 mph78%30.05 "Hg10 mi
4:09 pm64 °FPartly sunny.10 mph88%30.06 "Hg10 mi
3:56 pm65 °FScattered clouds.13 mph85%30.06 "Hg10 mi
3:24 pm64 °FOvercast.16 mph88%30.06 "Hg10 mi
Weather by CustomWeather, © 2019

See weather overview